Location: Unspecified
(51.3762°N, 0.0000°E)
Time: 23:02:46
(UTC+00:00)

KKS-1 - Visible Passes

Search period start: 13 October 2019 00:00
Search period end: 23 October 2019 00:00
Orbit: 637 x 650 km, 98.3° (Epoch: 13 October)

Date Brightness Start Highest point End Pass type
(mag) Time Alt. Az. Time Alt. Az. Time Alt. Az.
13 Oct ? 04:38:01 10° ENE 04:39:59 13° NE 04:41:56 10° NNE visible
13 Oct ? 19:33:08 10° NNE 19:36:03 39° NNE 19:36:03 39° NNE visible
13 Oct ? 21:10:35 10° NNW 21:13:40 19° WNW 21:13:40 19° WNW visible
14 Oct ? 05:01:04 10° ESE 05:04:13 19° ENE 05:07:22 10° NNE visible
14 Oct ? 18:22:21 10° NE 18:22:37 11° NE 18:22:37 11° NE visible
14 Oct ? 19:57:41 10° NNE 20:00:15 34° N 20:00:15 34° N visible
14 Oct ? 21:36:04 10° NNW 21:37:52 12° NW 21:37:52 12° NW visible
15 Oct ? 05:24:40 10° ESE 05:28:31 29° ENE 05:32:22 10° N visible
15 Oct ? 18:46:09 10° NE 18:46:53 14° NE 18:46:53 14° NE visible
15 Oct ? 20:22:22 10° N 20:24:30 26° NNW 20:24:30 26° NNW visible
16 Oct ? 05:48:38 10° SE 05:52:55 45° ENE 05:57:11 10° N visible
16 Oct ? 19:10:21 10° NNE 19:11:10 15° NNE 19:11:10 15° NNE visible
16 Oct ? 20:47:12 10° N 20:48:47 19° NNW 20:48:47 19° NNW visible
17 Oct ? 04:39:34 10° E 04:41:35 13° NE 04:43:35 10° NNE visible
17 Oct ? 19:34:45 10° NNE 19:35:29 15° NNE 19:35:29 15° NNE visible
17 Oct ? 21:12:14 10° NNW 21:13:06 13° NNW 21:13:06 13° NNW visible
18 Oct ? 05:02:38 10° ESE 05:05:49 19° ENE 05:08:59 10° NNE visible
18 Oct ? 19:59:18 10° N 19:59:50 13° N 19:59:50 13° N visible
19 Oct ? 05:26:16 10° ESE 05:30:07 29° ENE 05:33:59 10° N visible
19 Oct ? 20:23:59 10° N 20:24:12 11° N 20:24:12 11° N visible
20 Oct ? 05:50:15 10° SE 05:54:30 46° ENE 05:58:48 10° N visible
21 Oct ? 04:41:07 10° E 04:43:11 13° NE 04:45:14 10° NNE visible
22 Oct ? 05:04:13 10° ESE 05:07:25 20° ENE 05:10:37 10° NNE visible
